Back to catalog

BREEZE-M DEB

TANK

AliveHEO
NORAD 41193·DEBRIS·🇷🇺 Russia

Launched Dec 24, 2015 from Baikonur Cosmodrome

Loading…

Next Passes (next 24 hours)

TLE

FreshSource: Space-Track

Epoch: Sep 11, 2026, 09:07 UTC

1 41193U 15082C   26254.37989553  .00004453  00000-0  89774-3 0  9996
2 41193  49.5579 321.4350 5203297  13.6273 356.3528  5.27669775202175

Track BREEZE-M DEB in real time with AllMySat

Download on the App Store